Mount Airy, NC

8:44 PM EDT on April 22, 2018 (GMT -0400)
Mount Airy-Surry County

Weather History for KMWK - February, 2013

Change the Weather History Date:

Wednesday, February 27, 2013

  Actual Average (KINT) Record (KINT)
Temperature  
Mean Temperature 46 °F -  
Max Temperature 58 °F 53 °F 81 °F (1977)
Min Temperature 35 °F 34 °F 12 °F (1968)
Degree Days  
Heating Degree Days 18    
Moisture  
Dew Point 37 °F    
Average Humidity 72    
Maximum Humidity 92    
Minimum Humidity 39    
Precipitation  
Precipitation 0.05 in - - ()
Sea Level Pressure  
Sea Level Pressure 29.70 in    
Wind  
Wind Speed 3 mph (WSW)    
Max Wind Speed 12 mph    
Max Gust Speed 20 mph    
Visibility 8 miles    
Events Fog , Rain    
Averages and records for this station are not official NWS values.
T = Trace of Precipitation, MM = Missing Value Source: NWS Daily Summary

Daily Weather History Graph

Daily Weather History Graph

Search for Another Location

Airport or City:

Astronomy

Feb. 27, 2013 Rise Set
Actual Time 6:55 AM EST 6:15 PM EST
Civil Twilight 6:29 AM EST 6:41 PM EST
Nautical Twilight 5:59 AM EST 7:11 PM EST
Astronomical Twilight 5:29 AM EST 7:40 PM EST
Moon 8:29 PM EST (2/27) 7:34 AM EST (2/27)
Length of Visible Light 12h 11m
Length of Day
11h 20m
Waning Gibbous, 96% of the Moon is Illuminated
Feb 27
Waning Gibbous
Mar 4
Last Quarter
Mar 11
New
Mar 19
First Quarter
Mar 27
Full

Hourly Weather History & Observations

Time (EST) Temp. Windchill Dew Point Humidity Pressure Visibility Wind Dir Wind Speed Gust Speed Precip Events Conditions
12:55 AM 39.4 °F - 36.9 °F 91% 29.61 in 0.2 mi Calm Calm - N/A Fog Fog
1:15 AM 39.4 °F - 36.9 °F 91% 29.62 in 0.2 mi Calm Calm - N/A Fog Fog
1:35 AM 39.6 °F - 37.0 °F 91% 29.62 in 0.2 mi Calm Calm - N/A Fog Fog
1:55 AM 39.6 °F - 37.0 °F 91% 29.62 in 0.2 mi Calm Calm - N/A Fog Fog
2:35 AM 39.7 °F - 37.4 °F 91% 29.61 in 0.2 mi Calm Calm - N/A Fog Fog
2:55 AM 39.7 °F 37.6 °F 37.4 °F 91% 29.61 in 0.8 mi SW 3.5 mph - N/A   Overcast
3:15 AM 39.6 °F 37.4 °F 37.0 °F 91% 29.61 in 0.8 mi SW 3.5 mph - N/A   Overcast
4:15 AM 38.8 °F - 36.5 °F 91% 29.62 in 0.8 mi Calm Calm - N/A   Overcast
4:55 AM 38.3 °F - 36.0 °F 91% 29.64 in 1.5 mi Calm Calm - N/A   Overcast
5:15 AM 38.3 °F 33.2 °F 35.6 °F 90% 29.65 in 1.8 mi WSW 6.9 mph - N/A   Overcast
5:35 AM 37.8 °F - 35.6 °F 92% 29.66 in 3.0 mi Calm Calm - N/A   Overcast
5:55 AM 37.6 °F 35.1 °F 35.2 °F 91% 29.66 in 4.0 mi WSW 3.5 mph - N/A   Overcast
7:15 AM 35.8 °F - 33.4 °F 91% 29.69 in 5.0 mi Calm Calm - N/A   Overcast
7:35 AM 36.9 °F - 34.7 °F 92% 29.70 in 7.0 mi Calm Calm - N/A   Overcast
7:55 AM 37.6 °F - 35.4 °F 92% 29.71 in 10.0 mi Calm Calm - N/A   Mostly Cloudy
8:15 AM 41.0 °F - 38.7 °F 91% 29.72 in 10.0 mi Calm Calm - N/A   Scattered Clouds
8:35 AM 45.7 °F - 43.2 °F 91% 29.72 in 10.0 mi Calm Calm - N/A   Mostly Cloudy
9:15 AM 48.9 °F - 46.2 °F 90% 29.73 in 10.0 mi WSW 4.6 mph - N/A   Mostly Cloudy
9:55 AM 50.0 °F - 47.1 °F 90% 29.74 in 10.0 mi WSW 8.1 mph - N/A   Scattered Clouds
10:15 AM 51.6 °F - 48.0 °F 87% 29.74 in 10.0 mi WSW 8.1 mph - N/A   Mostly Cloudy
10:35 AM 52.0 °F - 47.1 °F 83% 29.75 in 10.0 mi WSW 11.5 mph - N/A   Overcast
10:55 AM 50.5 °F - 38.1 °F 62% 29.75 in 10.0 mi West 6.9 mph - N/A   Scattered Clouds
11:15 AM 49.8 °F - 37.9 °F 64% 29.76 in 10.0 mi West 9.2 mph - N/A   Clear
11:35 AM 51.3 °F - 41.0 °F 68% 29.75 in 10.0 mi WSW 8.1 mph - N/A   Clear
11:55 AM 53.6 °F - 46.9 °F 78% 29.75 in 10.0 mi WSW 6.9 mph - N/A   Scattered Clouds
12:15 PM 51.1 °F - 42.3 °F 72% 29.75 in 10.0 mi Calm Calm - N/A   Scattered Clouds
12:55 PM 54.3 °F - 37.8 °F 54% 29.74 in 10.0 mi SW 8.1 mph - N/A   Scattered Clouds
1:15 PM 53.6 °F - 42.8 °F 67% 29.73 in 10.0 mi WSW 3.5 mph - N/A   Scattered Clouds
1:35 PM 55.4 °F - 35.6 °F 47% 29.71 in 10.0 mi South 6.9 mph - N/A   Clear
2:15 PM 57.2 °F - 37.2 °F 47% 29.71 in 10.0 mi West 3.5 mph - N/A   Clear
2:35 PM 58.1 °F - 37.4 °F 46% 29.70 in 10.0 mi WSW 6.9 mph - N/A   Clear
2:55 PM 56.3 °F - 35.4 °F 46% 29.69 in 10.0 mi WSW 8.1 mph - N/A   Scattered Clouds
3:35 PM 57.2 °F - 34.0 °F 42% 29.69 in 10.0 mi SSW 8.1 mph 19.6 mph N/A   Mostly Cloudy
3:55 PM 58.1 °F - 33.3 °F 39% 29.69 in 10.0 mi South 9.2 mph - N/A   Scattered Clouds
4:15 PM 57.2 °F - 35.2 °F 44% 29.69 in 10.0 mi SW 8.1 mph - N/A   Scattered Clouds
4:35 PM 56.5 °F - 35.4 °F 45% 29.69 in 10.0 mi SSW 6.9 mph 16.1 mph N/A   Clear
4:55 PM 55.9 °F - 35.6 °F 46% 29.69 in 10.0 mi SSW 9.2 mph 16.1 mph N/A   Clear
5:15 PM 54.9 °F - 34.7 °F 47% 29.69 in 10.0 mi SSW 8.1 mph - N/A   Clear
5:35 PM 54.7 °F - 35.6 °F 49% 29.69 in 10.0 mi SSW 3.5 mph - N/A   Clear
6:15 PM 50.9 °F - 35.1 °F 55% 29.70 in 10.0 mi Calm Calm - N/A   Clear
6:35 PM 49.5 °F - 34.9 °F 57% 29.70 in 10.0 mi Calm Calm - N/A   Clear
6:55 PM 47.1 °F - 32.5 °F 57% 29.70 in 10.0 mi Calm Calm - N/A   Clear
7:15 PM 46.8 °F - 34.5 °F 62% 29.70 in 10.0 mi Calm Calm - N/A   Clear
7:35 PM 46.4 °F - 33.4 °F 61% 29.70 in 10.0 mi Calm Calm - N/A   Clear
8:15 PM 46.8 °F - 36.1 °F 67% 29.71 in 10.0 mi WNW 5.8 mph - N/A   Mostly Cloudy
8:35 PM 47.3 °F - 39.6 °F 74% 29.73 in 5.0 mi West 9.2 mph - 0.02 in Rain Rain
8:55 PM 45.1 °F - 38.7 °F 78% 29.72 in 10.0 mi Calm Calm - 0.05 in Rain Light Rain
9:35 PM 44.6 °F 42.2 °F 39.2 °F 81% 29.71 in 10.0 mi WNW 4.6 mph - N/A Rain Rain
9:55 PM 43.9 °F 42.3 °F 38.1 °F 80% 29.71 in 10.0 mi NW 3.5 mph - N/A   Scattered Clouds
10:15 PM 42.8 °F 37.5 °F 36.7 °F 79% 29.72 in 10.0 mi WNW 9.2 mph - N/A   Scattered Clouds
10:35 PM 45.0 °F 39.3 °F 35.4 °F 69% 29.72 in 10.0 mi West 11.5 mph 17.3 mph N/A   Overcast
11:15 PM 44.6 °F 40.2 °F 34.2 °F 67% 29.72 in 10.0 mi WNW 8.1 mph - N/A   Overcast
11:35 PM 43.9 °F 41.3 °F 33.8 °F 68% 29.71 in 10.0 mi WNW 4.6 mph - N/A   Overcast
11:55 PM 43.0 °F 40.3 °F 33.1 °F 68% 29.71 in 10.0 mi WNW 4.6 mph - N/A   Mostly Cloudy